When you browse on this site, cookies collect data to enhance your experience and personalize the content and advertising you see.
Visit our Privacy Policy to learn more. By continuing to use the site, you agree to this use of cookies and data.
  • In Hungary
  • List of Countries
  • For 7 days
  • Water Temperature
  • Weather Map
  • News
  • Weather Widgets
  • user-avatar
    Login

    Hourly Weather Melbourne

    Today, 27 May, Wednesday

    Time Temperature Precipitation Wind Pressure Humidity
    00:00 +10°C° 0 mm 3 mps 765 mmHg 70%
    01:00 +10°C° 0 mm 2 mps 764 mmHg 71%
    02:00 +10°C° 0 mm 3 mps 764 mmHg 71%
    03:00 +10°C° 0 mm 3 mps 764 mmHg 72%
    04:00 +10°C° 0 mm 3 mps 764 mmHg 69%
    05:00 +11°C° 0 mm 3 mps 764 mmHg 69%
    06:00 +11°C° 0 mm 4 mps 764 mmHg 68%
    07:00 +12°C° 0 mm 4 mps 764 mmHg 68%
    08:00 +13°C° 0 mm 4 mps 764 mmHg 68%
    09:00 +13°C° 0 mm 5 mps 764 mmHg 67%
    10:00 +14°C° 0 mm 5 mps 764 mmHg 65%
    11:00 +15°C° 0 mm 5 mps 763 mmHg 65%
    12:00 +15°C° 0 mm 5 mps 763 mmHg 65%
    13:00 +16°C° 0 mm 5 mps 762 mmHg 64%
    14:00 +16°C° 0 mm 5 mps 762 mmHg 65%
    15:00 +15°C° 0 mm 5 mps 762 mmHg 67%
    16:00 +15°C° 0 mm 5 mps 762 mmHg 69%
    17:00 +14°C° 0 mm 5 mps 762 mmHg 72%
    18:00 +14°C° 0 mm 4 mps 762 mmHg 75%
    19:00 +13°C° 0 mm 4 mps 763 mmHg 78%
    20:00 +13°C° 0 mm 4 mps 763 mmHg 79%
    21:00 +12°C° 0 mm 4 mps 763 mmHg 81%
    22:00 +12°C° 0 mm 3 mps 763 mmHg 83%
    23:00 +12°C° 0 mm 3 mps 763 mmHg 84%

    Tomorrow, 28 May, Thursday

    Time Temperature Precipitation Wind Pressure Humidity
    00:00 +11°C° 0 mm 3 mps 763 mmHg 85%
    01:00 +11°C° 0 mm 3 mps 763 mmHg 86%
    02:00 +11°C° 0 mm 3 mps 763 mmHg 84%
    03:00 +11°C° 0 mm 3 mps 763 mmHg 82%
    04:00 +11°C° 0 mm 3 mps 763 mmHg 80%
    05:00 +11°C° 0 mm 3 mps 764 mmHg 80%
    06:00 +11°C° 0 mm 3 mps 764 mmHg 80%
    07:00 +12°C° 0 mm 2 mps 764 mmHg 80%
    08:00 +13°C° 0 mm 2 mps 764 mmHg 77%
    09:00 +13°C° 0 mm 2 mps 765 mmHg 73%
    10:00 +14°C° 0 mm 2 mps 765 mmHg 70%
    11:00 +15°C° 0 mm 2 mps 764 mmHg 66%
    12:00 +17°C° 0 mm 2 mps 764 mmHg 61%
    13:00 +19°C° 0 mm 1 mps 764 mmHg 56%
    14:00 +19°C° 0.1 mm 1 mps 764 mmHg 59%
    15:00 +18°C° 0.1 mm 1 mps 764 mmHg 62%
    16:00 +18°C° 0.1 mm 1 mps 764 mmHg 65%
    17:00 +16°C° 0.1 mm 1 mps 765 mmHg 69%
    18:00 +15°C° 0.1 mm 1 mps 765 mmHg 72%
    19:00 +15°C° 0.1 mm 1 mps 766 mmHg 75%
    20:00 +14°C° 0 mm 1 mps 766 mmHg 78%
    21:00 +13°C° 0 mm 1 mps 767 mmHg 80%
    22:00 +13°C° 0 mm 2 mps 767 mmHg 83%
    23:00 +12°C° 0 mm 2 mps 767 mmHg 83%

    Day after tomorrow, 29 May, Friday

    Time Temperature Precipitation Wind Pressure Humidity
    00:00 +12°C° 0 mm 2 mps 767 mmHg 83%
    01:00 +12°C° 0 mm 2 mps 767 mmHg 83%
    02:00 +10°C° 0 mm 2 mps 767 mmHg 84%
    03:00 +10°C° 0 mm 2 mps 767 mmHg 84%
    04:00 +10°C° 0 mm 2 mps 767 mmHg 85%
    05:00 +10°C° 0 mm 2 mps 767 mmHg 85%
    06:00 +9°C° 0 mm 3 mps 768 mmHg 85%
    07:00 +9°C° 0 mm 3 mps 768 mmHg 85%
    08:00 +11°C° 0 mm 3 mps 768 mmHg 80%
    09:00 +12°C° 0 mm 4 mps 768 mmHg 75%
    10:00 +13°C° 0 mm 4 mps 768 mmHg 71%
    11:00 +14°C° 0 mm 4 mps 768 mmHg 65%
    12:00 +17°C° 0 mm 4 mps 768 mmHg 60%
    13:00 +18°C° 0 mm 4 mps 767 mmHg 55%
    14:00 +18°C° 0 mm 4 mps 767 mmHg 56%
    15:00 +17°C° 0 mm 4 mps 767 mmHg 58%
    16:00 +17°C° 0 mm 4 mps 766 mmHg 59%
    17:00 +15°C° 0 mm 4 mps 767 mmHg 64%
    18:00 +14°C° 0 mm 4 mps 767 mmHg 69%
    19:00 +13°C° 0 mm 3 mps 767 mmHg 73%
    20:00 +12°C° 0 mm 4 mps 767 mmHg 74%
    21:00 +12°C° 0 mm 4 mps 767 mmHg 76%
    22:00 +12°C° 0 mm 4 mps 767 mmHg 77%
    23:00 +12°C° 0 mm 4 mps 767 mmHg 76%

    30 May, Saturday

    Time Temperature Precipitation Wind Pressure Humidity
    00:00 +10°C° 0 mm 5 mps 767 mmHg 76%
    01:00 +10°C° 0 mm 5 mps 766 mmHg 75%
    02:00 +10°C° 0 mm 5 mps 766 mmHg 76%
    03:00 +10°C° 0 mm 5 mps 766 mmHg 76%
    04:00 +10°C° 0 mm 5 mps 766 mmHg 77%
    05:00 +10°C° 0 mm 5 mps 766 mmHg 77%
    06:00 +9°C° 0 mm 5 mps 766 mmHg 77%
    07:00 +9°C° 0 mm 6 mps 765 mmHg 78%
    08:00 +10°C° 0 mm 6 mps 765 mmHg 73%
    09:00 +11°C° 0 mm 7 mps 765 mmHg 68%
    10:00 +12°C° 0 mm 7 mps 765 mmHg 63%
    11:00 +14°C° 0 mm 7 mps 764 mmHg 60%
    12:00 +15°C° 0 mm 8 mps 763 mmHg 56%
    13:00 +16°C° 0 mm 8 mps 761 mmHg 52%
    14:00 +16°C° 0 mm 8 mps 761 mmHg 53%
    15:00 +16°C° 0 mm 8 mps 760 mmHg 54%
    16:00 +16°C° 0 mm 8 mps 759 mmHg 55%
    17:00 +15°C° 0 mm 7 mps 759 mmHg 56%
    18:00 +15°C° 0 mm 7 mps 759 mmHg 56%
    19:00 +15°C° 0 mm 7 mps 759 mmHg 57%
    20:00 +15°C° 0 mm 7 mps 758 mmHg 55%
    21:00 +15°C° 0 mm 7 mps 758 mmHg 53%
    22:00 +15°C° 0 mm 6 mps 758 mmHg 51%
    23:00 +14°C° 0 mm 6 mps 758 mmHg 55%

    31 May, Sunday

    Time Temperature Precipitation Wind Pressure Humidity
    00:00 +14°C° 0 mm 7 mps 758 mmHg 60%
    01:00 +12°C° 0 mm 7 mps 758 mmHg 64%
    02:00 +12°C° 0.1 mm 7 mps 758 mmHg 67%
    03:00 +13°C° 0.1 mm 6 mps 758 mmHg 70%
    04:00 +13°C° 0.1 mm 6 mps 758 mmHg 74%
    05:00 +12°C° 0.1 mm 5 mps 758 mmHg 75%
    06:00 +12°C° 0.1 mm 5 mps 758 mmHg 76%
    07:00 +12°C° 0.1 mm 4 mps 759 mmHg 77%
    08:00 +12°C° 0.1 mm 5 mps 759 mmHg 75%
    09:00 +13°C° 0.1 mm 5 mps 759 mmHg 72%
    10:00 +13°C° 0.1 mm 5 mps 759 mmHg 70%
    11:00 +14°C° 0 mm 5 mps 759 mmHg 65%
    12:00 +14°C° 0 mm 5 mps 758 mmHg 60%
    13:00 +15°C° 0 mm 5 mps 758 mmHg 55%
    14:00 +15°C° 0 mm 5 mps 757 mmHg 56%
    15:00 +14°C° 0 mm 5 mps 757 mmHg 58%
    16:00 +14°C° 0 mm 5 mps 756 mmHg 59%
    17:00 +14°C° 0 mm 5 mps 756 mmHg 60%
    18:00 +13°C° 0 mm 6 mps 756 mmHg 61%
    19:00 +13°C° 0 mm 6 mps 756 mmHg 63%
    20:00 +13°C° 0 mm 6 mps 756 mmHg 62%
    21:00 +13°C° 0 mm 6 mps 755 mmHg 61%
    22:00 +13°C° 0 mm 6 mps 754 mmHg 60%
    23:00 +12°C° 0 mm 7 mps 754 mmHg 62%

    1 June, Monday

    Time Temperature Precipitation Wind Pressure Humidity
    00:00 +12°C° 0 mm 7 mps 753 mmHg 63%
    01:00 +11°C° 0 mm 7 mps 753 mmHg 65%
    02:00 +11°C° 0.6 mm 7 mps 753 mmHg 70%
    03:00 +10°C° 0.6 mm 7 mps 753 mmHg 74%
    04:00 +9°C° 0.6 mm 6 mps 753 mmHg 79%
    05:00 +9°C° 0.3 mm 6 mps 754 mmHg 78%
    06:00 +8°C° 0.3 mm 6 mps 755 mmHg 78%
    07:00 +8°C° 0.3 mm 6 mps 756 mmHg 78%
    08:00 +8°C° 0.1 mm 5 mps 757 mmHg 72%
    09:00 +9°C° 0.1 mm 5 mps 757 mmHg 67%
    10:00 +9°C° 0.1 mm 5 mps 758 mmHg 61%
    11:00 +9°C° 0.2 mm 5 mps 758 mmHg 61%
    12:00 +9°C° 0.2 mm 5 mps 759 mmHg 61%
    13:00 +9°C° 0.2 mm 6 mps 759 mmHg 60%
    14:00 +9°C° 0.2 mm 6 mps 759 mmHg 59%
    15:00 +9°C° 0.2 mm 6 mps 760 mmHg 58%
    16:00 +9°C° 0.2 mm 5 mps 760 mmHg 57%
    17:00 +9°C° 0.2 mm 5 mps 761 mmHg 63%
    18:00 +8°C° 0.2 mm 5 mps 762 mmHg 69%
    19:00 +7°C° 0.2 mm 5 mps 762 mmHg 74%
    20:00 +7°C° 0.1 mm 5 mps 763 mmHg 73%
    21:00 +7°C° 0.1 mm 5 mps 763 mmHg 71%
    22:00 +6°C° 0.1 mm 5 mps 764 mmHg 69%
    23:00 +6°C° 0.1 mm 5 mps 764 mmHg 72%
    Show more